User: anonymous
Location: Unspecified
(0.0000°N, 0.0000°E)
Time: 02:32:33
(UTC+02:00)
Language:

Iridium 39 - Orbit

View from above orbital plane
View from above orbital plane
View from above satellite
View from above satellite

Ground track
Ground track

The orbit data is extracted from the following two-line orbital elements,

1 25042U 97069D   14292.47585782  .00000784  00000-0  27300-3 0   162
2 25042 086.3968 068.3232 0002319 108.3784 251.7664 14.34214689887034
Epoch (UTC): 19 October 2014 11:25:14
Eccentricity: 0.0002319
inclination: 86.3968°
perigee height: 776 km
apogee height: 779 km
right ascension of ascending node: 68.3232°
argument of perigee: 108.3784°
revolutions per day: 14.34214689
mean anomaly at epoch: 251.7664°
orbit number at epoch: 88703

The dashed part of the orbit path shows where the satellite is in the earth's shadow,  

DLR